| time (UTC) | temp F | wind direction | speed MPH | gust MPH | rain 1hr in | rain 24hr in | rain mn in | humidity % | barometer mb |
| 20260506024558 | 48 | 170 | 0.0 | 0.0 | 0.00 | 0.04 | 0.03 | 91 | 1008.4 |
| 20260506024342 | 48 | 170 | 0.0 | 0.0 | 0.00 | 0.20 | 0.03 | 91 | 1008.5 |
| 20260506023839 | 48 | 171 | 0.0 | 0.0 | 0.00 | 0.20 | 0.03 | 91 | 1008.7 |
| 20260506023357 | 48 | 172 | 0.0 | 0.0 | 0.00 | 0.20 | 0.03 | 91 | 1008.6 |
| 20260506023101 | 48 | 172 | 0.0 | 0.0 | 0.00 | 0.04 | 0.03 | 91 | 1008.5 |
| 20260506022832 | 48 | 172 | 0.0 | 0.0 | 0.00 | 0.20 | 0.03 | 91 | 1008.7 |
| 20260506022349 | 48 | 179 | 0.0 | 0.0 | 0.00 | 0.20 | 0.03 | 90 | 1008.8 |
| 20260506021846 | 48 | 162 | 0.0 | 0.0 | 0.00 | 0.20 | 0.03 | 90 | 1008.7 |
| 20260506021525 | 48 | 159 | 0.0 | 0.0 | 0.00 | 0.04 | 0.03 | 90 | 1008.4 |
| 20260506021343 | 48 | 160 | 0.0 | 0.0 | 0.00 | 0.20 | 0.03 | 90 | 1008.6 |
| 20260506020840 | 48 | 179 | 0.0 | 0.0 | 0.00 | 0.20 | 0.03 | 89 | 1008.7 |
| 20260506020337 | 48 | 183 | 0.0 | 0.0 | 0.00 | 0.20 | 0.03 | 89 | 1008.6 |
| 20260506020051 | 48 | 182 | 0.0 | 0.0 | 0.00 | 0.04 | 0.03 | 89 | 1008.5 |
| 20260506015851 | 48 | 182 | 0.0 | 0.0 | 0.00 | 0.20 | 0.03 | 88 | 1008.7 |
| 20260506015346 | 48 | 167 | 0.0 | 0.0 | 0.00 | 0.20 | 0.03 | 88 | 1008.6 |
| 20260506014910 | 48 | 168 | 0.0 | 0.0 | 0.00 | 0.20 | 0.03 | 87 | 1008.7 |
| 20260506014543 | 48 | 166 | 0.0 | 0.0 | 0.00 | 0.04 | 0.03 | 87 | 1008.5 |
| 20260506014347 | 48 | 166 | 0.0 | 0.0 | 0.00 | 0.20 | 0.03 | 87 | 1008.8 |
| 20260506013844 | 48 | 167 | 0.0 | 0.0 | 0.00 | 0.20 | 0.03 | 87 | 1008.6 |
| 20260506013341 | 49 | 167 | 0.0 | 0.0 | 0.00 | 0.20 | 0.03 | 86 | 1008.6 |
| 20260506013002 | 48 | 169 | 0.0 | 0.0 | 0.00 | 0.04 | 0.03 | 85 | 1008.2 |
| 20260506012838 | 49 | 158 | 0.0 | 0.0 | 0.00 | 0.20 | 0.03 | 85 | 1008.4 |
| 20260506012333 | 49 | 158 | 0.0 | 0.0 | 0.00 | 0.20 | 0.03 | 85 | 1008.5 |
| 20260506011831 | 49 | 158 | 0.0 | 0.0 | 0.00 | 0.20 | 0.03 | 85 | 1008.2 |
| 20260506011544 | 48 | 158 | 0.0 | 0.0 | 0.00 | 0.04 | 0.03 | 84 | 1007.9 |
| 20260506011343 | 49 | 158 | 0.0 | 0.0 | 0.00 | 0.20 | 0.03 | 84 | 1008.2 |
| 20260506010841 | 49 | 158 | 0.0 | 0.0 | 0.00 | 0.20 | 0.03 | 84 | 1008.1 |
| 20260506010338 | 49 | 160 | 0.0 | 0.0 | 0.00 | 0.20 | 0.03 | 84 | 1008.1 |
| 20260506010006 | 48 | 156 | 0.0 | 0.0 | 0.00 | 0.04 | 0.03 | 84 | 1007.8 |
| 20260506005835 | 49 | 156 | 0.0 | 0.0 | 0.00 | 0.20 | 0.03 | 84 | 1008.0 |
| 20260506005331 | 49 | 179 | 0.0 | 0.0 | 0.00 | 0.20 | 0.03 | 84 | 1008.3 |
| 20260506004847 | 49 | 167 | 0.0 | 0.0 | 0.00 | 0.20 | 0.03 | 84 | 1008.2 |
| 20260506004536 | 48 | 167 | 0.0 | 0.0 | 0.00 | 0.04 | 0.03 | 83 | 1007.9 |
| 20260506004345 | 49 | 167 | 0.0 | 0.0 | 0.00 | 0.20 | 0.03 | 83 | 1008.2 |
| 20260506003840 | 49 | 310 | 0.0 | 0.0 | 0.00 | 0.20 | 0.03 | 82 | 1008.0 |
| 20260506003335 | 49 | 309 | 0.0 | 0.0 | 0.00 | 0.20 | 0.03 | 82 | 1008.0 |
| 20260506003121 | 48 | 309 | 0.0 | 0.0 | 0.00 | 0.04 | 0.03 | 82 | 1007.7 |
| 20260506002831 | 49 | 310 | 0.0 | 0.0 | 0.00 | 0.20 | 0.03 | 82 | 1008.0 |
| 20260506002348 | 49 | 310 | 0.0 | 0.0 | 0.00 | 0.20 | 0.03 | 82 | 1007.9 |
| 20260506001841 | 49 | 310 | 0.0 | 0.0 | 0.00 | 0.20 | 0.03 | 82 | 1007.7 |
| 20260506001530 | 48 | 310 | 0.0 | 0.0 | 0.00 | 0.04 | 0.03 | 82 | 1007.3 |
| 20260506001338 | 49 | 310 | 0.0 | 0.0 | 0.00 | 0.20 | 0.03 | 82 | 1007.6 |
| 20260506000903 | 49 | 309 | 0.0 | 0.0 | 0.00 | 0.20 | 0.03 | 82 | 1007.7 |
| 20260506000401 | 49 | 310 | 0.0 | 0.0 | 0.00 | 0.20 | 0.03 | 82 | 1007.6 |
| 20260506000104 | 49 | 310 | 0.0 | 0.0 | 0.00 | 0.04 | 0.03 | 82 | 1007.3 |
| 20260505235903 | 49 | 310 | 0.0 | 0.0 | 0.00 | 0.20 | 0.03 | 81 | 1007.6 |
| 20260505235340 | 49 | 310 | 0.0 | 0.0 | 0.00 | 0.20 | 0.03 | 81 | 1007.6 |
| 20260505234837 | 49 | 310 | 0.0 | 0.0 | 0.00 | 0.20 | 0.03 | 81 | 1007.7 |
| 20260505234506 | 49 | 310 | 0.0 | 0.0 | 0.00 | 0.04 | 0.03 | 81 | 1007.3 |
| 20260505234333 | 49 | 310 | 0.0 | 0.0 | 0.00 | 0.20 | 0.03 | 82 | 1007.6 |
| 20260505233831 | 49 | 309 | 0.0 | 0.0 | 0.00 | 0.20 | 0.03 | 82 | 1007.8 |
| 20260505233342 | 49 | 309 | 0.0 | 0.0 | 0.00 | 0.20 | 0.03 | 82 | 1007.9 |
| 20260505233046 | 49 | 309 | 0.0 | 0.0 | 0.00 | 0.04 | 0.03 | 82 | 1007.5 |
| 20260505232839 | 49 | 309 | 0.0 | 0.0 | 0.00 | 0.20 | 0.03 | 81 | 1007.9 |
| 20260505232336 | 49 | 308 | 0.0 | 0.0 | 0.00 | 0.20 | 0.03 | 81 | 1007.9 |
| 20260505231834 | 49 | 306 | 0.0 | 0.0 | 0.00 | 0.20 | 0.03 | 81 | 1007.8 |
| 20260505231600 | 49 | 295 | 0.0 | 0.0 | 0.00 | 0.04 | 0.03 | 82 | 1007.5 |
| 20260505231330 | 49 | 325 | 0.0 | 0.0 | 0.00 | 0.20 | 0.03 | 82 | 1007.8 |
| 20260505230847 | 49 | 324 | 0.0 | 0.0 | 0.00 | 0.20 | 0.03 | 82 | 1007.7 |
| 20260505230345 | 49 | 321 | 0.0 | 0.0 | 0.00 | 0.20 | 0.03 | 81 | 1007.7 |
| 20260505230038 | 49 | 332 | 0.0 | 0.0 | 0.00 | 0.04 | 0.03 | 82 | 1007.4 |
| 20260505225841 | 49 | 332 | 0.0 | 0.0 | 0.00 | 0.20 | 0.03 | 81 | 1007.7 |
| 20260505225356 | 49 | 309 | 0.0 | 0.0 | 0.00 | 0.20 | 0.03 | 82 | 1007.7 |
| 20260505224832 | 49 | 295 | 0.0 | 0.0 | 0.00 | 0.20 | 0.03 | 82 | 1007.6 |
| 20260505224535 | 49 | 295 | 0.0 | 0.0 | 0.00 | 0.04 | 0.03 | 81 | 1007.4 |
| 20260505224344 | 49 | 295 | 0.0 | 0.0 | 0.00 | 0.20 | 0.03 | 81 | 1007.7 |
| 20260505223841 | 49 | 343 | 0.0 | 0.0 | 0.00 | 0.20 | 0.03 | 82 | 1007.8 |
| 20260505223338 | 49 | 335 | 0.0 | 0.0 | 0.00 | 0.20 | 0.03 | 82 | 1007.6 |
| 20260505223054 | 49 | 342 | 0.0 | 0.0 | 0.00 | 0.04 | 0.03 | 82 | 1007.3 |
| 20260505222906 | 49 | 4 | 0.0 | 0.0 | 0.00 | 0.20 | 0.03 | 82 | 1007.7 |
| 20260505222342 | 49 | 335 | 0.0 | 0.0 | 0.00 | 0.20 | 0.03 | 83 | 1007.8 |
| 20260505221840 | 49 | 334 | 0.0 | 0.0 | 0.00 | 0.20 | 0.03 | 83 | 1008.0 |
| 20260505221600 | 49 | 314 | 0.0 | 0.0 | 0.00 | 0.04 | 0.03 | 83 | 1007.6 |
| 20260505221337 | 49 | 305 | 0.0 | 0.0 | 0.00 | 0.20 | 0.03 | 83 | 1007.8 |
| 20260505220854 | 49 | 314 | 0.0 | 0.0 | 0.00 | 0.20 | 0.03 | 83 | 1007.8 |
| 20260505220350 | 49 | 332 | 0.0 | 0.0 | 0.00 | 0.20 | 0.03 | 84 | 1007.7 |
| 20260505220042 | 49 | 337 | 0.0 | 0.0 | 0.00 | 0.04 | 0.03 | 85 | 1007.2 |
| 20260505215842 | 49 | 340 | 0.0 | 0.0 | 0.00 | 0.20 | 0.03 | 84 | 1007.7 |
| 20260505215357 | 49 | 318 | 0.0 | 0.0 | 0.00 | 0.20 | 0.03 | 85 | 1007.7 |
| 20260505214833 | 49 | 317 | 0.0 | 0.0 | 0.00 | 0.20 | 0.03 | 85 | 1007.9 |
| 20260505214544 | 49 | 316 | 0.0 | 0.0 | 0.00 | 0.04 | 0.03 | 85 | 1007.4 |
| 20260505214329 | 49 | 318 | 0.0 | 0.0 | 0.00 | 0.20 | 0.03 | 85 | 1008.0 |
| 20260505213846 | 49 | 274 | 0.0 | 0.0 | 0.00 | 0.20 | 0.03 | 85 | 1007.8 |
| 20260505213345 | 49 | 273 | 0.0 | 0.0 | 0.00 | 0.20 | 0.03 | 85 | 1007.7 |
| 20260505213003 | 49 | 273 | 0.0 | 0.0 | 0.00 | 0.04 | 0.03 | 85 | 1007.2 |
| 20260505212843 | 49 | 297 | 0.0 | 0.0 | 0.00 | 0.20 | 0.03 | 85 | 1007.7 |
| 20260505212340 | 49 | 311 | 0.0 | 0.0 | 0.00 | 0.20 | 0.03 | 85 | 1007.6 |
| 20260505211857 | 49 | 295 | 0.0 | 0.0 | 0.00 | 0.20 | 0.03 | 85 | 1007.7 |
| 20260505211504 | 49 | 294 | 0.0 | 0.0 | 0.00 | 0.04 | 0.03 | 84 | 1007.2 |
| 20260505211332 | 49 | 290 | 0.0 | 0.0 | 0.00 | 0.20 | 0.03 | 85 | 1007.7 |
| 20260505210845 | 49 | 295 | 0.0 | 0.0 | 0.00 | 0.20 | 0.03 | 85 | 1007.7 |
| 20260505210341 | 49 | 293 | 0.0 | 0.0 | 0.00 | 0.20 | 0.03 | 85 | 1007.9 |
| 20260505210044 | 49 | 314 | 0.0 | 0.0 | 0.00 | 0.04 | 0.03 | 85 | 1007.3 |
| 20260505205838 | 49 | 292 | 0.0 | 0.0 | 0.00 | 0.20 | 0.03 | 85 | 1007.8 |
| 20260505205338 | 49 | 354 | 0.0 | 0.0 | 0.00 | 0.20 | 0.03 | 86 | 1007.8 |
| 20260505204903 | 49 | 303 | 0.0 | 0.0 | 0.00 | 0.20 | 0.03 | 86 | 1007.9 |
| 20260505204550 | 49 | 303 | 0.0 | 0.0 | 0.00 | 0.04 | 0.03 | 85 | 1007.5 |
| 20260505204338 | 49 | 294 | 0.0 | 0.0 | 0.04 | 0.20 | 0.03 | 86 | 1008.0 |
| 20260505203836 | 49 | 276 | 0.0 | 0.0 | 0.04 | 0.20 | 0.03 | 86 | 1007.8 |
| 20260505203332 | 49 | 329 | 0.0 | 0.0 | 0.04 | 0.20 | 0.03 | 86 | 1007.9 |
| 20260505203022 | 49 | 359 | 0.0 | 0.0 | 0.01 | 0.04 | 0.03 | 87 | 1007.2 |
| 20260505202847 | 49 | 354 | 0.0 | 0.0 | 0.04 | 0.20 | 0.03 | 87 | 1007.8 |
| 20260505202344 | 49 | 299 | 0.0 | 0.0 | 0.04 | 0.20 | 0.03 | 87 | 1007.7 |
| 20260505201837 | 49 | 293 | 0.0 | 0.0 | 0.08 | 0.20 | 0.03 | 88 | 1007.7 |
| 20260505201552 | 48 | 348 | 0.0 | 0.0 | 0.02 | 0.04 | 0.03 | 88 | 1007.0 |
| 20260505201335 | 49 | 289 | 0.0 | 0.0 | 0.12 | 0.20 | 0.03 | 88 | 1007.6 |
| 20260505200834 | 49 | 304 | 0.0 | 0.0 | 0.12 | 0.20 | 0.03 | 89 | 1007.9 |
| 20260505200332 | 49 | 303 | 0.0 | 0.0 | 0.12 | 0.20 | 0.03 | 89 | 1007.7 |
| 20260505200006 | 48 | 303 | 0.0 | 0.0 | 0.02 | 0.04 | 0.03 | 88 | 1007.0 |
| 20260505195848 | 49 | 323 | 0.0 | 0.0 | 0.12 | 0.20 | 0.03 | 88 | 1007.6 |
| 20260505195345 | 49 | 304 | 0.0 | 0.0 | 0.16 | 0.20 | 0.03 | 87 | 1007.6 |
| 20260505194842 | 49 | 298 | 0.0 | 0.0 | 0.16 | 0.20 | 0.03 | 87 | 1007.5 |
| 20260505194524 | 49 | 294 | 0.0 | 0.0 | 0.03 | 0.04 | 0.03 | 87 | 1006.8 |
| 20260505194401 | 49 | 296 | 0.0 | 0.0 | 0.12 | 0.16 | 0.02 | 87 | 1007.5 |
| 20260505193856 | 49 | 306 | 0.0 | 0.0 | 0.12 | 0.16 | 0.02 | 87 | 1007.5 |
| 20260505193330 | 50 | 285 | 0.0 | 0.0 | 0.12 | 0.16 | 0.02 | 86 | 1007.5 |
| 20260505193004 | 49 | 295 | 0.0 | 0.0 | 0.02 | 0.03 | 0.02 | 85 | 1006.9 |
| 20260505192844 | 50 | 311 | 0.0 | 0.0 | 0.12 | 0.16 | 0.02 | 85 | 1007.4 |
| 20260505192339 | 51 | 277 | 0.0 | 0.0 | 0.12 | 0.16 | 0.02 | 84 | 1007.3 |
| 20260505191902 | 51 | 295 | 0.0 | 0.0 | 0.08 | 0.12 | 0.02 | 82 | 1007.3 |
| 20260505191506 | 51 | 313 | 0.0 | 0.0 | 0.02 | 0.02 | 0.02 | 82 | 1006.7 |
| 20260505191339 | 51 | 338 | 0.0 | 0.0 | 0.04 | 0.08 | 0.01 | 81 | 1007.3 |
| 20260505190837 | 52 | 291 | 0.0 | 0.0 | 0.04 | 0.08 | 0.01 | 80 | 1007.3 |
| 20260505190354 | 52 | 340 | 0.0 | 0.0 | 0.04 | 0.08 | 0.01 | 79 | 1007.1 |
| 20260505190003 | 52 | 312 | 0.0 | 0.0 | 0.01 | 0.02 | 0.01 | 78 | 1006.4 |
| 20260505185846 | 53 | 294 | 0.0 | 0.0 | 0.04 | 0.08 | 0.01 | 78 | 1007.2 |
| 20260505185344 | 53 | 266 | 0.0 | 0.0 | 0.00 | 0.04 | 0.00 | 76 | 1007.2 |
| 20260505184842 | 54 | 297 | 0.0 | 0.0 | 0.00 | 0.04 | 0.00 | 74 | 1007.2 |
| 20260505184542 | 53 | 292 | 0.0 | 0.0 | 0.00 | 0.01 | 0.00 | 74 | 1006.6 |
| 20260505184332 | 54 | 287 | 0.0 | 0.0 | 0.00 | 0.04 | 0.00 | 74 | 1007.2 |
| 20260505183850 | 55 | 310 | 0.0 | 0.0 | 0.00 | 0.04 | 0.00 | 71 | 1007.1 |
| 20260505183347 | 55 | 305 | 0.0 | 0.0 | 0.00 | 0.04 | 0.00 | 70 | 1007.0 |
| 20260505183104 | 55 | 278 | 0.0 | 0.0 | 0.00 | 0.01 | 0.00 | 70 | 1006.3 |
| 20260505182844 | 55 | 305 | 0.0 | 0.0 | 0.00 | 0.04 | 0.00 | 68 | 1007.0 |
| 20260505182410 | 55 | 303 | 0.0 | 0.0 | 0.00 | 0.04 | 0.00 | 67 | 1006.8 |
| 20260505181848 | 56 | 293 | 0.0 | 0.0 | 0.00 | 0.04 | 0.00 | 69 | 1006.7 |
| 20260505181544 | 55 | 266 | 0.0 | 0.0 | 0.00 | 0.01 | 0.00 | 67 | 1006.1 |
| 20260505181345 | 56 | 310 | 0.0 | 0.0 | 0.00 | 0.04 | 0.00 | 65 | 1006.6 |
| 20260505180843 | 56 | 296 | 0.0 | 0.0 | 0.00 | 0.04 | 0.00 | 64 | 1006.7 |
| 20260505180342 | 57 | 260 | 0.0 | 0.0 | 0.00 | 0.04 | 0.00 | 63 | 1006.7 |
| 20260505180059 | 57 | 293 | 0.0 | 0.0 | 0.00 | 0.01 | 0.00 | 64 | 1006.0 |
| 20260505175838 | 57 | 280 | 0.0 | 0.0 | 0.00 | 0.04 | 0.00 | 65 | 1006.6 |
| 20260505175400 | 57 | 335 | 0.0 | 0.0 | 0.00 | 0.04 | 0.00 | 62 | 1006.5 |
| 20260505174835 | 58 | 279 | 0.0 | 0.0 | 0.00 | 0.04 | 0.00 | 63 | 1006.5 |
| 20260505174555 | 57 | 274 | 0.0 | 0.0 | 0.00 | 0.01 | 0.00 | 61 | 1005.9 |
| 20260505174333 | 58 | 272 | 0.0 | 0.0 | 0.00 | 0.04 | 0.00 | 64 | 1006.5 |
| 20260505173850 | 58 | 308 | 0.0 | 0.0 | 0.00 | 0.04 | 0.00 | 63 | 1006.2 |
| 20260505173343 | 58 | 275 | 0.0 | 0.0 | 0.00 | 0.04 | 0.00 | 62 | 1006.1 |
| 20260505173059 | 58 | 298 | 0.0 | 0.0 | 0.00 | 0.01 | 0.00 | 64 | 1005.4 |
| 20260505172840 | 59 | 308 | 0.0 | 0.0 | 0.00 | 0.04 | 0.00 | 64 | 1005.9 |
| 20260505172339 | 59 | 335 | 0.0 | 0.0 | 0.00 | 0.04 | 0.00 | 65 | 1006.0 |
| 20260505171903 | 58 | 306 | 0.0 | 0.0 | 0.00 | 0.04 | 0.00 | 66 | 1005.9 |
| 20260505171606 | 58 | 252 | 0.0 | 0.0 | 0.00 | 0.01 | 0.00 | 66 | 1005.2 |
| 20260505171355 | 58 | 274 | 0.0 | 0.0 | 0.00 | 0.04 | 0.00 | 67 | 1005.9 |
| 20260505170831 | 59 | 268 | 0.0 | 0.0 | 0.00 | 0.04 | 0.00 | 68 | 1005.9 |
| 20260505170348 | 58 | 309 | 0.0 | 0.0 | 0.00 | 0.04 | 0.00 | 68 | 1005.8 |
| 20260505170004 | 58 | 282 | 0.0 | 0.0 | 0.00 | 0.01 | 0.00 | 66 | 1005.0 |
| 20260505165844 | 58 | 324 | 0.0 | 0.0 | 0.00 | 0.04 | 0.00 | 66 | 1005.8 |
| 20260505165342 | 58 | 296 | 0.0 | 0.0 | 0.00 | 0.04 | 0.00 | 68 | 1005.7 |
| 20260505164841 | 58 | 305 | 0.0 | 0.0 | 0.00 | 0.04 | 0.00 | 69 | 1005.6 |
| 20260505164539 | 58 | 322 | 0.0 | 0.0 | 0.00 | 0.01 | 0.00 | 69 | 1005.0 |
| 20260505164407 | 58 | 270 | 0.0 | 0.0 | 0.00 | 0.04 | 0.00 | 69 | 1005.7 |
| 20260505163845 | 58 | 292 | 0.0 | 0.0 | 0.00 | 0.04 | 0.00 | 68 | 1005.7 |
| 20260505163340 | 58 | 305 | 0.0 | 0.0 | 0.00 | 0.04 | 0.00 | 68 | 1005.8 |
| 20260505163050 | 58 | 318 | 0.0 | 0.0 | 0.00 | 0.01 | 0.00 | 69 | 1005.1 |
| 20260505162858 | 58 | 336 | 0.0 | 0.0 | 0.00 | 0.04 | 0.00 | 69 | 1005.8 |
| 20260505162330 | 59 | 309 | 0.0 | 0.0 | 0.00 | 0.04 | 0.00 | 69 | 1005.8 |
| 20260505161845 | 58 | 315 | 0.0 | 0.0 | 0.00 | 0.04 | 0.00 | 70 | 1005.7 |
| 20260505161612 | 58 | 267 | 0.0 | 0.0 | 0.00 | 0.01 | 0.00 | 69 | 1004.9 |
| 20260505161342 | 58 | 314 | 0.0 | 0.0 | 0.00 | 0.04 | 0.00 | 70 | 1005.6 |
| 20260505160909 | 58 | 285 | 0.0 | 0.0 | 0.00 | 0.04 | 0.00 | 69 | 1005.5 |
| 20260505160343 | 59 | 295 | 0.0 | 0.0 | 0.00 | 0.04 | 0.00 | 70 | 1005.5 |
| 20260505153348 | 58 | 287 | 0.0 | 0.0 | 0.00 | 0.04 | 0.00 | 73 | 1005.7 |
| 20260505153033 | 58 | 277 | 0.0 | 0.0 | 0.00 | 0.01 | 0.00 | 74 | 1004.9 |
| 20260505152843 | 58 | 263 | 0.0 | 0.0 | 0.00 | 0.04 | 0.00 | 73 | 1005.6 |
| 20260505152339 | 59 | 316 | 0.0 | 0.0 | 0.00 | 0.04 | 0.00 | 74 | 1005.3 |
| 20260505151836 | 59 | 315 | 0.0 | 0.0 | 0.00 | 0.04 | 0.00 | 74 | 1005.1 |
| 20260505151606 | 58 | 252 | 0.0 | 0.0 | 0.00 | 0.01 | 0.00 | 75 | 1004.3 |
| 20260505151402 | 59 | 297 | 0.0 | 0.0 | 0.00 | 0.04 | 0.00 | 73 | 1004.7 |
| 20260505150837 | 59 | 325 | 0.0 | 0.0 | 0.00 | 0.04 | 0.00 | 74 | 1004.5 |
| 20260505150335 | 59 | 244 | 0.0 | 0.0 | 0.00 | 0.04 | 0.00 | 75 | 1004.3 |
| 20260505140338 | 57 | 305 | 0.0 | 0.0 | 0.00 | 0.04 | 0.00 | 80 | 1003.2 |
| 20260505124842 | 59 | 283 | 0.0 | 0.0 | 0.00 | 0.04 | 0.00 | 84 | 1002.8 |
| 20260505124550 | 58 | 285 | 0.0 | 0.0 | 0.00 | 0.01 | 0.00 | 84 | 1001.9 |
| 20260505124357 | 58 | 275 | 0.0 | 0.0 | 0.00 | 0.04 | 0.00 | 85 | 1002.7 |
| 20260505123833 | 58 | 309 | 0.0 | 0.0 | 0.00 | 0.04 | 0.00 | 85 | 1002.6 |
| 20260505123329 | 58 | 292 | 0.0 | 0.0 | 0.00 | 0.04 | 0.00 | 85 | 1002.6 |
| 20260505123051 | 58 | 257 | 0.0 | 0.0 | 0.00 | 0.01 | 0.00 | 85 | 1001.8 |
| 20260505122845 | 58 | 305 | 0.0 | 0.0 | 0.00 | 0.04 | 0.00 | 85 | 1002.4 |
| 20260505122400 | 58 | 270 | 0.0 | 0.0 | 0.00 | 0.04 | 0.00 | 85 | 1002.0 |
| 20260505121902 | 58 | 265 | 0.0 | 0.0 | 0.00 | 0.04 | 0.00 | 85 | 1002.0 |
| 20260505121541 | 57 | 256 | 0.0 | 0.0 | 0.00 | 0.01 | 0.00 | 85 | 1001.2 |
| 20260505121338 | 58 | 252 | 0.0 | 0.0 | 0.00 | 0.04 | 0.00 | 85 | 1001.9 |
| 20260505120836 | 58 | 258 | 0.0 | 0.0 | 0.00 | 0.04 | 0.00 | 84 | 1001.8 |
| 20260505120335 | 58 | 242 | 0.0 | 0.0 | 0.00 | 0.04 | 0.00 | 84 | 1001.8 |
| 20260505120128 | 57 | 248 | 0.0 | 0.0 | 0.00 | 0.01 | 0.00 | 85 | 1000.9 |
| 20260505115851 | 58 | 228 | 0.0 | 0.0 | 0.00 | 0.04 | 0.00 | 85 | 1001.6 |
| 20260505115328 | 57 | 289 | 0.0 | 0.0 | 0.00 | 0.04 | 0.00 | 85 | 1001.5 |
| 20260505114844 | 57 | 261 | 0.0 | 0.0 | 0.00 | 0.04 | 0.00 | 85 | 1001.5 |
| 20260505114605 | 57 | 257 | 0.0 | 0.0 | 0.00 | 0.01 | 0.00 | 85 | 1000.7 |
| 20260505114341 | 57 | 258 | 0.0 | 0.0 | 0.00 | 0.04 | 0.00 | 85 | 1001.3 |
| 20260505113838 | 57 | 254 | 0.0 | 0.0 | 0.00 | 0.04 | 0.00 | 85 | 1001.4 |
| 20260505113337 | 57 | 262 | 0.0 | 0.0 | 0.00 | 0.04 | 0.00 | 85 | 1001.4 |
| 20260505113043 | 57 | 260 | 0.0 | 0.0 | 0.00 | 0.01 | 0.00 | 85 | 1000.5 |
| 20260505112835 | 57 | 263 | 0.0 | 0.0 | 0.00 | 0.04 | 0.00 | 85 | 1001.2 |
| 20260505112349 | 57 | 249 | 0.0 | 0.0 | 0.00 | 0.04 | 0.00 | 85 | 1001.3 |
| 20260505111847 | 57 | 320 | 0.0 | 0.0 | 0.00 | 0.04 | 0.00 | 85 | 1001.1 |
| 20260505111545 | 57 | 245 | 0.0 | 0.0 | 0.00 | 0.01 | 0.00 | 85 | 1000.4 |
| 20260505111344 | 57 | 240 | 0.0 | 0.0 | 0.00 | 0.04 | 0.00 | 85 | 1001.2 |
| 20260505110841 | 57 | 261 | 0.0 | 0.0 | 0.00 | 0.04 | 0.00 | 85 | 1001.1 |
| 20260505110340 | 57 | 263 | 0.0 | 0.0 | 0.00 | 0.04 | 0.00 | 85 | 1001.1 |
| 20260505101842 | 57 | 259 | 0.0 | 0.0 | 0.00 | 0.04 | 0.00 | 84 | 1000.6 |
| 20260505101525 | 57 | 261 | 0.0 | 0.0 | 0.00 | 0.01 | 0.00 | 84 | 999.9 |
| 20260505101337 | 57 | 264 | 0.0 | 0.0 | 0.00 | 0.04 | 0.00 | 84 | 1000.5 |
| 20260505100903 | 57 | 250 | 0.0 | 0.0 | 0.00 | 0.04 | 0.00 | 84 | 1000.5 |
| 20260505100339 | 57 | 245 | 0.0 | 0.0 | 0.00 | 0.04 | 0.00 | 84 | 1000.4 |
| 20260505100032 | 57 | 208 | 0.0 | 0.0 | 0.00 | 0.01 | 0.00 | 84 | 999.8 |
| 20260505095838 | 57 | 252 | 0.0 | 0.0 | 0.00 | 0.04 | 0.00 | 84 | 1000.6 |
| 20260505095336 | 57 | 249 | 0.0 | 0.0 | 0.00 | 0.04 | 0.00 | 84 | 1000.6 |
| 20260505094833 | 57 | 239 | 0.0 | 0.0 | 0.00 | 0.04 | 0.00 | 84 | 1000.5 |
| 20260505094558 | 57 | 239 | 0.0 | 0.0 | 0.00 | 0.01 | 0.00 | 84 | 999.8 |
| 20260505094332 | 57 | 264 | 0.0 | 0.0 | 0.00 | 0.04 | 0.00 | 84 | 1000.5 |
| 20260505093843 | 57 | 251 | 0.0 | 0.0 | 0.00 | 0.04 | 0.00 | 84 | 1000.3 |
| 20260505093341 | 58 | 255 | 0.0 | 0.0 | 0.00 | 0.04 | 0.00 | 84 | 1000.3 |
| 20260505093023 | 57 | 251 | 0.0 | 0.0 | 0.00 | 0.01 | 0.00 | 84 | 999.6 |
| 20260505092837 | 58 | 243 | 0.0 | 0.0 | 0.00 | 0.04 | 0.00 | 84 | 1000.3 |
| 20260505092333 | 57 | 269 | 0.0 | 0.0 | 0.00 | 0.04 | 0.00 | 84 | 1000.2 |
| 20260505091851 | 57 | 227 | 0.0 | 0.0 | 0.00 | 0.04 | 0.00 | 84 | 1000.1 |
| 20260505091520 | 57 | 251 | 0.0 | 0.0 | 0.00 | 0.01 | 0.00 | 84 | 999.4 |
| 20260505091327 | 57 | 266 | 0.0 | 0.0 | 0.00 | 0.04 | 0.00 | 84 | 1000.1 |
| 20260505090844 | 57 | 264 | 0.0 | 0.0 | 0.00 | 0.04 | 0.00 | 84 | 1000.0 |
| 20260505090400 | 57 | 247 | 0.0 | 0.0 | 0.00 | 0.04 | 0.00 | 84 | 999.8 |
| 20260505090038 | 57 | 246 | 0.0 | 0.0 | 0.00 | 0.01 | 0.00 | 84 | 999.2 |
| 20260505085836 | 57 | 236 | 0.0 | 0.0 | 0.00 | 0.04 | 0.00 | 83 | 999.7 |
| 20260505085328 | 58 | 238 | 0.0 | 0.0 | 0.00 | 0.04 | 0.00 | 83 | 999.9 |
| 20260505084846 | 58 | 251 | 0.0 | 0.0 | 0.00 | 0.04 | 0.00 | 83 | 999.8 |
| 20260505084550 | 57 | 249 | 0.0 | 0.0 | 0.00 | 0.01 | 0.00 | 83 | 999.2 |
| 20260505084343 | 57 | 247 | 0.0 | 0.0 | 0.00 | 0.04 | 0.00 | 83 | 999.9 |
| 20260505083840 | 57 | 249 | 0.0 | 0.0 | 0.00 | 0.04 | 0.00 | 83 | 999.9 |
| 20260505083338 | 57 | 264 | 0.0 | 0.0 | 0.00 | 0.04 | 0.00 | 84 | 999.7 |
| 20260505083023 | 57 | 250 | 0.0 | 0.0 | 0.00 | 0.01 | 0.00 | 84 | 999.1 |
| 20260505082836 | 57 | 226 | 0.0 | 0.0 | 0.00 | 0.04 | 0.00 | 84 | 999.7 |
| 20260505082403 | 57 | 237 | 0.0 | 0.0 | 0.00 | 0.04 | 0.00 | 83 | 999.8 |
| 20260505081839 | 57 | 254 | 0.0 | 0.0 | 0.00 | 0.04 | 0.00 | 83 | 999.6 |
| 20260505081536 | 57 | 252 | 0.0 | 0.0 | 0.00 | 0.01 | 0.00 | 83 | 999.0 |
| 20260505081338 | 58 | 251 | 0.0 | 0.0 | 0.00 | 0.04 | 0.00 | 83 | 999.6 |
| 20260505080836 | 58 | 243 | 0.0 | 0.0 | 0.00 | 0.04 | 0.00 | 83 | 999.5 |
| 20260505080334 | 58 | 239 | 0.0 | 0.0 | 0.00 | 0.04 | 0.00 | 83 | 999.5 |
| 20260505080058 | 57 | 256 | 0.0 | 0.0 | 0.00 | 0.01 | 0.00 | 83 | 998.9 |
| 20260505075847 | 58 | 242 | 0.0 | 0.0 | 0.00 | 0.04 | 0.00 | 83 | 999.6 |
| 20260505075343 | 58 | 250 | 0.0 | 0.0 | 0.00 | 0.04 | 0.00 | 83 | 999.5 |
| 20260505074840 | 58 | 251 | 0.0 | 0.0 | 0.00 | 0.04 | 0.00 | 83 | 999.4 |
| 20260505074532 | 57 | 257 | 0.0 | 0.0 | 0.00 | 0.01 | 0.00 | 83 | 998.9 |
| 20260505074339 | 58 | 236 | 0.0 | 0.0 | 0.00 | 0.04 | 0.00 | 83 | 999.7 |
| 20260505073835 | 58 | 253 | 0.0 | 0.0 | 0.00 | 0.04 | 0.00 | 83 | 999.8 |
| 20260505073333 | 58 | 249 | 0.0 | 0.0 | 0.00 | 0.04 | 0.00 | 83 | 999.9 |
| 20260505073105 | 57 | 249 | 0.0 | 0.0 | 0.00 | 0.01 | 0.00 | 83 | 999.3 |
| 20260505072900 | 58 | 247 | 0.0 | 0.0 | 0.00 | 0.04 | 0.00 | 83 | 999.9 |
| 20260505072335 | 58 | 241 | 0.0 | 0.0 | 0.00 | 0.04 | 0.00 | 83 | 999.9 |
| 20260505071832 | 58 | 246 | 0.0 | 0.0 | 0.00 | 0.04 | 0.00 | 83 | 999.9 |
| 20260505071604 | 57 | 251 | 0.0 | 0.0 | 0.00 | 0.01 | 0.00 | 83 | 999.3 |
| 20260505071329 | 58 | 241 | 0.0 | 0.0 | 0.00 | 0.04 | 0.00 | 83 | 1000.0 |
| 20260505070908 | 58 | 241 | 0.0 | 0.0 | 0.00 | 0.04 | 0.00 | 83 | 1000.1 |
| 20260505070344 | 58 | 239 | 0.0 | 0.0 | 0.00 | 0.04 | 0.00 | 83 | 1000.2 |
| 20260505070010 | 57 | 237 | 0.0 | 0.0 | 0.00 | 0.01 | 0.00 | 83 | 999.6 |
| 20260505065842 | 58 | 237 | 0.0 | 0.0 | 0.00 | 0.04 | 0.00 | 83 | 1000.3 |
| 20260505065408 | 58 | 235 | 0.0 | 0.0 | 0.00 | 0.04 | 0.00 | 83 | 1000.3 |
| 20260505064844 | 58 | 230 | 0.0 | 0.0 | 0.00 | 0.04 | 0.00 | 83 | 1000.4 |
| 20260505064538 | 57 | 229 | 0.0 | 0.0 | 0.00 | 0.01 | 0.00 | 83 | 999.9 |
| 20260505064343 | 58 | 258 | 0.0 | 0.0 | 0.00 | 0.04 | 0.00 | 83 | 1000.4 |
| 20260505063840 | 58 | 243 | 0.0 | 0.0 | 0.00 | 0.04 | 0.00 | 82 | 1000.5 |
| 20260505063338 | 58 | 241 | 0.0 | 0.0 | 0.00 | 0.04 | 0.00 | 82 | 1000.5 |
| 20260505063054 | 58 | 240 | 0.0 | 0.0 | 0.00 | 0.01 | 0.00 | 82 | 999.9 |
| 20260505062835 | 58 | 249 | 0.0 | 0.0 | 0.00 | 0.04 | 0.00 | 82 | 1000.6 |
| 20260505062334 | 59 | 241 | 0.0 | 0.0 | 0.00 | 0.04 | 0.00 | 82 | 1000.6 |
| 20260505061830 | 59 | 256 | 0.0 | 0.0 | 0.00 | 0.04 | 0.00 | 82 | 1000.7 |
| 20260505061526 | 58 | 238 | 0.0 | 0.0 | 0.00 | 0.01 | 0.00 | 81 | 999.9 |
| 20260505061344 | 59 | 249 | 0.0 | 0.0 | 0.00 | 0.04 | 0.00 | 81 | 1000.5 |
| 20260505060910 | 59 | 239 | 0.0 | 0.0 | 0.00 | 0.04 | 0.00 | 81 | 1000.6 |
| 20260505060345 | 59 | 226 | 0.0 | 0.0 | 0.00 | 0.04 | 0.00 | 81 | 1000.6 |
| 20260505060035 | 58 | 228 | 0.0 | 0.0 | 0.00 | 0.01 | 0.00 | 82 | 1000.0 |
| 20260505055907 | 59 | 222 | 0.0 | 0.0 | 0.00 | 0.04 | 0.00 | 82 | 1000.8 |
| 20260505055345 | 59 | 231 | 0.0 | 0.0 | 0.00 | 0.04 | 0.00 | 82 | 1000.8 |
| 20260505054842 | 59 | 228 | 0.0 | 0.0 | 0.00 | 0.04 | 0.00 | 82 | 1001.0 |
| 20260505054600 | 58 | 226 | 0.0 | 0.0 | 0.00 | 0.01 | 0.00 | 82 | 1000.5 |
| 20260505054339 | 59 | 226 | 0.0 | 0.0 | 0.00 | 0.04 | 0.00 | 82 | 1001.0 |
| 20260505053836 | 59 | 226 | 0.0 | 0.0 | 0.00 | 0.04 | 0.00 | 82 | 1001.0 |
| 20260505053334 | 59 | 226 | 0.0 | 0.0 | 0.00 | 0.04 | 0.00 | 82 | 1001.1 |
| 20260505053006 | 58 | 216 | 0.0 | 0.0 | 0.00 | 0.01 | 0.00 | 82 | 1000.6 |
| 20260505052831 | 59 | 242 | 0.0 | 0.0 | 0.00 | 0.04 | 0.00 | 82 | 1001.2 |
| 20260505052345 | 58 | 214 | 0.0 | 0.0 | 0.00 | 0.04 | 0.00 | 82 | 1001.2 |
| 20260505051842 | 58 | 238 | 0.0 | 0.0 | 0.00 | 0.04 | 0.00 | 83 | 1001.3 |
| 20260505051528 | 58 | 235 | 0.0 | 0.0 | 0.00 | 0.01 | 0.00 | 83 | 1000.8 |
| 20260505051357 | 58 | 228 | 0.0 | 0.0 | 0.00 | 0.04 | 0.00 | 83 | 1001.1 |
| 20260505050853 | 58 | 245 | 0.0 | 0.0 | 0.00 | 0.04 | 0.00 | 82 | 1001.3 |
| 20260505050329 | 59 | 239 | 0.0 | 0.0 | 0.00 | 0.04 | 0.00 | 82 | 1001.3 |
| 20260505041559 | 57 | 241 | 0.0 | 0.0 | 0.00 | 0.01 | 0.00 | 83 | 1000.6 |
| 20260505041410 | 58 | 243 | 0.0 | 0.0 | 0.00 | 0.04 | 0.00 | 83 | 1001.1 |
| 20260505040845 | 58 | 233 | 0.0 | 0.0 | 0.00 | 0.04 | 0.00 | 83 | 1001.1 |
| 20260505040410 | 58 | 231 | 0.0 | 0.0 | 0.00 | 0.04 | 0.00 | 83 | 1001.1 |
| 20260505040045 | 57 | 234 | 0.0 | 0.0 | 0.00 | 0.01 | 0.00 | 83 | 1000.6 |
| 20260505035836 | 58 | 217 | 0.0 | 0.0 | 0.00 | 0.04 | 0.01 | 83 | 1001.1 |
| 20260505035332 | 58 | 231 | 0.0 | 0.0 | 0.04 | 0.04 | 0.01 | 83 | 1001.1 |
| 20260505034848 | 58 | 243 | 0.0 | 0.0 | 0.04 | 0.04 | 0.01 | 83 | 1001.4 |
| 20260505034552 | 57 | 217 | 0.0 | 0.0 | 0.01 | 0.01 | 0.01 | 83 | 1001.0 |
| 20260505034345 | 58 | 251 | 0.0 | 0.0 | 0.04 | 0.04 | 0.01 | 84 | 1001.5 |
| 20260505033842 | 58 | 253 | 0.0 | 0.0 | 0.04 | 0.04 | 0.01 | 85 | 1001.8 |
| 20260505033400 | 57 | 226 | 0.0 | 0.0 | 0.04 | 0.04 | 0.01 | 87 | 1001.7 |
| 20260505033055 | 57 | 249 | 0.0 | 0.0 | 0.01 | 0.01 | 0.01 | 87 | 1001.3 |
| 20260505032905 | 57 | 242 | 0.0 | 0.0 | 0.04 | 0.04 | 0.01 | 87 | 1001.9 |
| 20260505032408 | 57 | 247 | 0.0 | 0.0 | 0.04 | 0.04 | 0.01 | 88 | 1001.8 |
| 20260505031844 | 57 | 254 | 0.0 | 0.0 | 0.04 | 0.04 | 0.01 | 88 | 1002.0 |
| 20260505031604 | 57 | 253 | 0.0 | 0.0 | 0.01 | 0.01 | 0.01 | 88 | 1001.4 |
| 20260505031407 | 58 | 260 | 0.0 | 0.0 | 0.04 | 0.04 | 0.01 | 88 | 1001.8 |
| 20260505030843 | 58 | 268 | 0.0 | 0.0 | 0.04 | 0.04 | 0.01 | 87 | 1001.8 |
| 20260505030341 | 58 | 227 | 0.0 | 0.0 | 0.04 | 0.04 | 0.01 | 87 | 1002.1 |
| 20260505030055 | 58 | 256 | 0.0 | 0.0 | 0.01 | 0.01 | 0.01 | 86 | 1001.7 |
| 20260505025838 | 58 | 295 | 0.0 | 0.0 | 0.04 | 0.04 | 0.01 | 86 | 1002.4 |
| 20260505025334 | 59 | 260 | 0.0 | 0.0 | 0.00 | 0.00 | 0.00 | 85 | 1002.4 |
| 20260505024831 | 59 | 249 | 0.0 | 0.0 | 0.00 | 0.00 | 0.00 | 84 | 1002.4 |